Regional Weather Roundup
Issued by NWS

Home | Current Version | Previous Version | Text Only | Print | Product List | Glossary Off
Versions: 1 2 3 4 5 6 7 8 9 10 11 12 13 14 15 16 17 18 19 20 21 22 23 24 25 26 27 28 29 30 31 32 33 34 35 36 37 38 39 40 41 42 43 44 45 46 47 48 49 50

000
ASUS43 KIND 171959
RWRIN

WEATHER ROUNDUP FOR INDIANA
NATIONAL WEATHER SERVICE INDIANAPOLIS IN
300 PM EST SUN DEC 17 2017

NOTE: "FAIR" INDICATES FEW OR NO CLOUDS BELOW 12,000 FEET WITH NO
SIGNIFICANT WEATHER AND/OR OBSTRUCTIONS TO VISIBILITY.

* - STATION DOES NOT REPORT WEATHER SUCH AS PRECIPITATION OR FOG.

+ - STATION NOT QUALITY CONTROLLED BY THE NATIONAL WEATHER SERVICE.
    USE DATA WITH CAUTION...ESPECIALLY DEWPOINT AND RELATIVE
    HUMIDITY OBSERVATIONS.

INZ001>003-010>013-019-020-172100-
NORTHWEST INDIANA

CITY           SKY/WX    TMP DP  RH WIND       PRES   REMARKS
KNOX *+        CLOUDY    43  32  65 SW7       30.01F
LA PORTE +     CLOUDY    41  32  71 SW6       30.00F
MONTICELLO +   CLOUDY    41  35  77 SW7       30.03F

$$

LMZ046-743>745-172100-
SOUTHERN LAKE MICHIGAN

STATION/POSITION TIME  TEMP    WIND        PRES    WAVE
                       AIR SEA DIR/SP/G            HT
                 (UTC) (F)     (DEG/KT/KT) (MB)    (FT)
BURNS HARBOR     1940   46     220/ 13/ 16 1016.3F
MICHIGAN CITY    1930   42     190/  5/  6   N/A

$$

INZ004-005-014>016-021>024-172100-
NORTH CENTRAL INDIANA

CITY           SKY/WX    TMP DP  RH WIND       PRES   REMARKS
GOSHEN         MOSUNNY   39  32  76 S6        30.01F WCI  35
PERU/GRISSOM   CLOUDY    40  40  99 SW9       30.04S WCI  35
ROCHESTER +    CLOUDY    43  34  70 S10       30.02F
SOUTH BEND     CLOUDY    38  32  79 S7        30.01F WCI  33
WARSAW +       CLOUDY    37  32  81 S3        30.02F

$$

INZ006>009-017-018-025>027-172100-
NORTHEAST INDIANA

CITY           SKY/WX    TMP DP  RH WIND       PRES   REMARKS
AUBURN +       CLOUDY    36  32  87 CALM      30.05F
FORT WAYNE     CLOUDY    41  36  82 S13       30.04F
KENDALLVILLE + CLOUDY    35  32  88 S6        30.03F WCI  30

$$

INZ028-029-035-036-043>045-051>053-172100-
WEST CENTRAL INDIANA

CITY           SKY/WX    TMP DP  RH WIND       PRES   REMARKS
LAFAYETTE      CLOUDY    43  36  76 VRB5      30.04F
TERRE HAUTE    CLOUDY    44  40  85 S8        30.06F

$$

INZ030>032-037>040-046>048-054>057-064-065-172100-
CENTRAL INDIANA

CITY           SKY/WX    TMP DP  RH WIND       PRES   REMARKS
COLUMBUS       CLOUDY    43  32  65 CALM      30.11F
FRANKFORT +    CLOUDY    45  39  79 SW5       30.06S
GREENWOOD *+   CLOUDY    45  40  84 S3        30.08F
INDIANAPOLIS   CLOUDY    42  38  85 CALM      30.06F
-EAGLE CREEK   CLOUDY    43  38  82 S5        30.06F
KOKOMO +       CLOUDY    40  37  89 S7        30.05F WCI  35
MT COMFORT *+  CLOUDY    39  39 100 S6        30.07F WCI  35
SHELBYVILLE    CLOUDY    41  36  82 S9        30.09F
ZIONSVILLE +   DRIZZLE   41  37  86 S8        30.06F

$$

INZ033-034-041-042-049-050-058-059-172100-
EAST CENTRAL INDIANA

CITY           SKY/WX    TMP DP  RH WIND       PRES   REMARKS
MUNCIE         CLOUDY    44  35  70 S12       30.05F
RICHMOND +     LGT RAIN  37  36  93 SW7       30.09F WCI  32

$$

INZ060-061-067>069-081>083-085>088-172100-
SOUTHWEST INDIANA

CITY           SKY/WX    TMP DP  RH WIND       PRES   REMARKS
EVANSVILLE     CLOUDY    45  40  82 SW5       30.10F
HUNTINGBURG +  CLOUDY    44  36  73 SW6       30.11S

$$

INZ062-063-066-070>080-084-089>092-172100-
SOUTH CENTRAL AND SOUTHEAST INDIANA

CITY           SKY/WX    TMP DP  RH WIND       PRES   REMARKS
BLOOMINGTON    CLOUDY    46  35  65 SW6       30.07F
SEYMOUR +      CLOUDY    48  32  53 S6        30.10S

$$





USA.gov is the U.S. government's official web portal to all federal, state and local government web resources and services.